Total_Precipitation_Accumulation
2.11 2.07 1.59 0.94 0.77 0.60 0.53 0.56 0.53 0.44 0.47 0.58 0.62 0.63 0.67 0.68 0.67 0.71 0.74 0.75 0.75 0.86 1.16 1.28 1.37 1.68 1.99 2.20 2.42 2.60 2.70 2.79 3.08 3.31 3.32 3.24 3.13 2.88 2.76 2.76 2.69 2.58 2.50 2.59
1.86 1.45 0.88 0.66 0.66 0.66 0.64 0.66 0.60 0.49 0.44 0.58 0.62 0.63 0.58 0.57 0.67 0.76 0.76 0.81 0.85 0.86 1.05 1.19 1.27 1.44 1.67 1.95 2.22 2.47 2.60 2.69 2.73 2.83 3.08 3.25 3.37 3.23 2.93 2.77 2.72 2.63 2.52 2.52
1.39 0.87 0.66 0.78 0.77 0.79 0.68 0.59 0.53 0.54 0.55 0.63 0.65 0.71 0.57 0.56 0.61 0.67 0.71 0.77 0.80 0.84 0.92 1.05 1.18 1.40 1.51 1.69 1.98 2.28 2.45 2.58 2.62 2.69 3.00 3.26 3.44 3.34 3.04 2.68 2.54 2.58 2.56 2.55
1.21 0.75 0.73 0.87 0.75 0.68 0.67 0.40 0.40 0.48 0.70 0.80 0.71 0.95 0.65 0.58 0.61 0.65 0.71 0.70 0.72 0.77 0.80 0.86 0.99 1.19 1.32 1.48 1.71 1.91 2.14 2.30 2.51 2.63 2.76 2.85 2.99 3.03 2.80 2.66 2.56 2.62 2.65 2.63
1.18 0.80 0.84 0.90 0.64 0.55 0.56 0.36 0.43 0.50 0.69 0.80 0.62 0.86 0.73 0.49 0.55 0.65 0.74 0.72 0.72 0.77 0.79 0.80 0.95 1.15 1.22 1.33 1.60 1.78 1.88 2.08 2.30 2.48 2.55 2.74 2.78 2.81 2.89 2.88 2.79 2.71 2.69 2.62
0.87 0.70 0.83 0.74 0.56 0.55 0.57 0.56 0.64 0.68 1.00 1.11 0.50 0.66 0.71 0.54 0.61 0.61 0.61 0.66 0.72 0.78 0.84 0.90 1.04 1.14 1.19 1.27 1.45 1.68 1.71 1.82 1.99 2.26 2.50 2.57 2.57 2.63 2.68 2.70 2.68 2.67 2.68 2.62
1.11 0.85 0.71 0.67 0.80 0.74 0.76 1.01 1.43 1.51 1.44 0.82 0.33 0.52 0.74 0.55 0.54 0.57 0.58 0.60 0.66 0.74 0.79 0.89 1.03 1.04 1.10 1.22 1.34 1.49 1.61 1.71 1.80 1.99 2.23 2.41 2.52 2.55 2.58 2.61 2.58 2.51 2.44 2.35
1.12 1.13 0.73 0.64 0.81 0.87 0.73 0.82 1.09 1.07 0.67 0.42 0.32 0.52 0.65 0.51 0.43 0.39 0.41 0.49 0.58 0.66 0.68 0.73 0.87 0.96 1.03 1.14 1.23 1.26 1.33 1.42 1.51 1.60 1.77 1.99 2.28 2.42 2.35 2.34 2.32 2.28 2.21 2.18
0.82 0.76 0.47 0.42 0.46 0.57 0.76 0.76 0.61 0.96 0.70 0.55 0.44 0.47 0.49 0.36 0.34 0.34 0.38 0.47 0.58 0.68 0.72 0.71 0.79 0.85 0.90 1.04 1.17 1.16 1.17 1.23 1.34 1.39 1.50 1.64 1.88 2.07 2.12 2.13 2.09 2.00 1.95 2.00
0.64 0.69 0.44 0.38 0.48 0.52 0.55 0.58 0.77 1.31 1.21 0.83 0.50 0.44 0.60 0.47 0.38 0.39 0.46 0.52 0.61 0.73 0.73 0.70 0.74 0.80 0.81 0.90 1.05 1.09 1.12 1.15 1.30 1.37 1.43 1.52 1.61 1.72 1.89 1.97 1.85 1.82 1.80 1.82
0.53 0.73 0.57 0.48 0.56 0.52 0.47 0.63 0.78 0.96 0.95 0.97 0.67 0.63 0.66 0.56 0.49 0.47 0.50 0.58 0.69 0.72 0.75 0.78 0.80 0.83 0.86 0.92 0.98 1.00 1.08 1.14 1.26 1.33 1.33 1.35 1.42 1.47 1.58 1.67 1.69 1.63 1.65 1.66
0.43 0.68 0.61 0.39 0.29 0.31 0.42 0.49 0.66 1.10 0.90 0.73 0.76 0.76 0.57 0.50 0.49 0.48 0.49 0.55 0.63 0.63 0.70 0.78 0.79 0.81 0.90 0.94 0.94 0.91 0.96 1.03 1.16 1.20 1.17 1.18 1.25 1.34 1.40 1.46 1.53 1.52 1.52 1.54
0.70 0.98 0.94 0.65 0.54 0.50 0.58 0.46 0.50 0.83 1.09 0.86 0.85 0.80 0.53 0.42 0.42 0.44 0.48 0.53 0.55 0.54 0.56 0.62 0.67 0.69 0.74 0.77 0.80 0.86 0.86 0.85 0.92 0.96 0.94 0.96 0.98 1.09 1.22 1.27 1.31 1.36 1.37 1.40
0.98 1.00 0.81 0.74 0.64 0.71 0.70 0.46 0.45 1.01 1.38 0.81 0.57 0.60 0.51 0.47 0.50 0.49 0.50 0.51 0.50 0.49 0.49 0.55 0.62 0.60 0.64 0.69 0.70 0.76 0.76 0.75 0.81 0.84 0.83 0.85 0.86 0.90 0.99 1.09 1.12 1.17 1.19 1.22
0.83 0.86 0.46 0.43 0.46 0.63 0.60 0.44 0.43 0.69 0.71 0.77 0.50 0.46 0.53 0.57 0.63 0.60 0.55 0.48 0.41 0.40 0.43 0.50 0.60 0.64 0.62 0.68 0.70 0.70 0.75 0.80 0.85 0.88 0.88 0.86 0.84 0.84 0.89 0.97 1.03 1.06 1.07 1.04
0.75 0.83 0.54 0.48 0.42 0.54 0.50 0.33 0.32 0.37 0.40 0.46 0.39 0.48 0.49 0.52 0.56 0.58 0.56 0.46 0.37 0.37 0.39 0.42 0.52 0.68 0.63 0.69 0.78 0.78 0.83 0.91 0.93 0.96 0.92 0.90 0.85 0.83 0.81 0.83 0.87 0.92 0.98 0.98
0.78 0.93 1.07 0.78 0.40 0.56 0.59 0.43 0.40 0.42 0.42 0.43 0.52 0.52 0.42 0.47 0.55 0.59 0.53 0.41 0.36 0.35 0.35 0.39 0.46 0.62 0.71 0.75 0.85 0.93 0.96 1.01 1.00 0.99 0.93 0.87 0.83 0.81 0.80 0.78 0.80 0.86 0.91 0.98
0.66 0.92 1.36 1.12 0.71 0.83 0.62 0.42 0.40 0.43 0.44 0.41 0.44 0.40 0.39 0.45 0.49 0.49 0.44 0.39 0.34 0.30 0.31 0.35 0.41 0.47 0.60 0.66 0.76 0.87 0.95 1.05 1.05 1.03 1.01 0.98 0.95 0.97 1.00 0.99 1.01 1.03 1.03 1.08
0.36 0.81 1.32 1.19 0.89 0.53 0.32 0.26 0.39 0.48 0.50 0.41 0.34 0.30 0.27 0.29 0.37 0.44 0.37 0.35 0.36 0.33 0.31 0.31 0.35 0.38 0.45 0.54 0.61 0.73 0.90 1.07 1.17 1.22 1.23 1.24 1.25 1.28 1.30 1.32 1.32 1.32 1.34 1.36
0.29 0.61 1.24 1.21 1.01 0.55 0.33 0.17 0.22 0.39 0.60 0.33 0.25 0.25 0.24 0.24 0.38 0.46 0.40 0.35 0.34 0.33 0.32 0.32 0.33 0.35 0.39 0.51 0.59 0.73 0.95 1.15 1.30 1.35 1.37 1.40 1.46 1.51 1.47 1.42 1.38 1.30 1.28 1.31
0.44 0.77 1.07 1.00 0.98 0.55 0.35 0.18 0.18 0.54 0.70 0.32 0.27 0.29 0.29 0.35 0.44 0.38 0.33 0.36 0.36 0.37 0.40 0.41 0.43 0.46 0.50 0.56 0.67 0.85 0.99 1.14 1.24 1.28 1.31 1.32 1.30 1.30 1.26 1.22 1.17 1.13 1.09 1.05
0.42 0.63 0.69 0.76 1.03 0.76 0.39 0.28 0.50 0.68 0.44 0.34 0.27 0.27 0.30 0.31 0.28 0.25 0.24 0.26 0.29 0.32 0.39 0.48 0.55 0.60 0.61 0.65 0.75 0.85 0.91 0.95 0.96 0.98 1.00 1.00 0.94 0.88 0.88 0.90 0.91 0.89 0.89 0.86
0.49 0.66 0.72 0.77 0.84 0.68 0.51 0.56 0.62 0.52 0.44 0.34 0.30 0.28 0.27 0.27 0.25 0.22 0.19 0.18 0.19 0.20 0.24 0.29 0.39 0.45 0.45 0.46 0.52 0.59 0.58 0.56 0.57 0.58 0.63 0.65 0.64 0.61 0.61 0.65 0.69 0.71 0.73 0.74
0.47 0.43 0.56 0.65 0.60 0.48 0.46 0.46 0.45 0.43 0.43 0.38 0.32 0.30 0.28 0.29 0.26 0.23 0.20 0.18 0.16 0.16 0.18 0.20 0.22 0.25 0.26 0.27 0.30 0.34 0.33 0.32 0.34 0.40 0.45 0.51 0.55 0.57 0.57 0.59 0.63 0.67 0.69 0.72
0.43 0.41 0.52 0.59 0.48 0.42 0.38 0.37 0.38 0.36 0.33 0.30 0.28 0.27 0.27 0.28 0.27 0.25 0.23 0.22 0.20 0.19 0.19 0.20 0.23 0.24 0.25 0.25 0.25 0.27 0.29 0.29 0.30 0.33 0.37 0.43 0.49 0.56 0.58 0.58 0.61 0.67 0.70 0.82
0.43 0.51 0.66 0.66 0.49 0.55 0.47 0.36 0.33 0.31 0.30 0.30 0.30 0.30 0.29 0.28 0.30 0.27 0.26 0.26 0.24 0.24 0.23 0.23 0.25 0.28 0.30 0.32 0.33 0.33 0.34 0.34 0.34 0.36 0.38 0.44 0.49 0.54 0.58 0.61 0.63 0.67 0.71 0.79